Regional Weather Roundup
Issued by NWS

Home | Current Version | Previous Version | Text Only | Print | Product List | Glossary On
Versions: 1 2 3 4 5 6 7 8 9 10 11 12 13 14 15 16 17 18 19 20 21 22 23 24 25 26 27 28 29 30 31 32 33 34 35 36 37 38 39 40 41 42 43 44 45 46 47 48 49 50
000
ASUS46 KSEW 281910
RWRWA

WASHINGTON REGIONAL WEATHER ROUNDUP
NATIONAL WEATHER SERVICE SEATTLE WA
1200 PM PDT FRI AUG 28 2015

NOTE:"FAIR" INDICATES FEW OR NO CLOUDS BELOW 12,000 FEET WITH NO
SIGNIFICANT WEATHER AND/OR OBSTRUCTIONS TO VISIBILITY.

WAZ505-507>509-282000-
SEATTLE, TACOMA, EVERETT, AND VICINITY

CITY           SKY/WX    TMP DP  RH WIND       PRES   REMARKS
EVERETT        CLOUDY    70  54  56 S15       29.96F
BOEING FIELD   PTSUNNY   72  54  53 S6        29.96S
RENTON         CLOUDY    71  53  52 SW6       29.95S
SEATAC AIRPORT PTSUNNY   68  55  63 SW3       29.97S
JBLM-MCCHORD   CLOUDY    69  57  66 W8        29.96S
PUYALLUP       PTSUNNY   73  59  60 CALM      29.96F
BREMERTON      CLOUDY    64  63  94 S10       30.00S
JBLM-FT LEWIS  PTSUNNY   70  59  69 W9        29.95F
TACOMA NARROWS PTSUNNY   66  57  72 VRB3      29.97S
$$

WAZ001-503-506-510-514-515-282000-
NORTH INTERIOR

CITY           SKY/WX    TMP DP  RH WIND       PRES   REMARKS
BELLINGHAM     CLOUDY    67  58  72 S7        29.95S
FRIDAY HARBOR  PTSUNNY   64  58  80 E6        29.95F
EASTSOUND      CLOUDY    64  59  82 S10       29.93R
PORT ANGELES   CLOUDY    61  58  90 CALM      29.96S
PORT TOWNSEND  CLOUDY    64  59  82 VRB7      29.95S
NAS WHIDBEY    CLOUDY    59  57  93 W5        29.99S
ARLINGTON      PTSUNNY   72  55  56 S14       29.94F
BURLINGTON     CLOUDY    70  57  64 S10       29.95R
$$

WAZ020-022-039-040-504-511-512-282000-
SOUTHWEST INTERIOR

CITY           SKY/WX    TMP DP  RH WIND       PRES   REMARKS
SHELTON        CLOUDY    66  59  78 SW8       29.95S
OLYMPIA        MOSUNNY   68  59  73 MISG      29.96F
CHEHALIS       PTSUNNY   73  61  64 CALM      29.96S
KELSO          NOT AVBL
VANCOUVER      PTSUNNY   75  57  53 CALM      29.93F
SCAPPOOSE, OR  PTSUNNY   72  57  59 VRB5      29.94F
PORTLAND, OR   PTSUNNY   74  58  57 CALM      29.94F
$$

WAZ021-516-517-282000-
WASHINGTON COAST

CITY           SKY/WX    TMP DP  RH WIND       PRES   REMARKS
FORKS          PTSUNNY   66  61  84 VRB3      29.95R
HOQUIAM        LGT RAIN  65  60  84 W7        29.96S
ASTORIA, OR    CLOUDY    66  61  84 SW5       29.95S
$$

WAZ019-023-024-040-518-519-282000-
CASCADE MOUNTAINS AND COLUMBIA GORGE

CITY           SKY/WX    TMP DP  RH WIND       PRES   REMARKS
TROUTDALE, OR  MOSUNNY   75  56  51 N3        29.94F
THE DALLES, OR CLOUDY    76  53  44 NW5       29.91F
$$

WAZ026-027-041>044-520-521-282000-
EAST SLOPES

CITY           SKY/WX    TMP DP  RH WIND       PRES   REMARKS
OMAK           CLOUDY    80  47  31 S14       29.88F
WENATCHEE      CLOUDY    77  49  37 W7        29.91F
ELLENSBURG     CLOUDY    73  49  42 S7        29.94S
YAKIMA         CLOUDY    78  54  43 NE7       29.91F
$$

WAZ028-034-035-282000-
COLUMBIA BASIN

CITY           SKY/WX    TMP DP  RH WIND       PRES   REMARKS
EPHRATA        CLOUDY    78  51  38 S10       29.91F
MOSES LAKE     CLOUDY    76  54  46 SE8       29.92F
PASCO          CLOUDY    80  50  34 S6        29.93R
HERMISTON, OR  CLOUDY    79  50  36 W7        29.94S
$$

WAZ036>038-282000-
NORTHEAST WASHINGTON

CITY           SKY/WX    TMP DP  RH WIND       PRES   REMARKS
SPOKANE GEIGER CLOUDY    75  42  30 SW10      30.00R
SPOKANE FELTS  CLOUDY    78  42  27 SW9       29.99R
FAIRCHILD AFB  DRIZZLE   75  41  29 S10       30.01R
COEURDALENE,ID CLOUDY    75  45  33 S9        30.00R
DEER PARK      CLOUDY    74  45  35 S8        30.00R
$$

WAZ029>033-282000-
SOUTHEAST WASHINGTON

CITY           SKY/WX    TMP DP  RH WIND       PRES   REMARKS
PULLMAN        CLOUDY    75  43  31 W12       30.04R
LEWISTON, ID   CLOUDY    78  44  29 CALM      29.97F HAZE
WALLA WALLA    CLOUDY    82  45  27 SW6       29.97F
PENDLETON, OR  CLOUDY    79  44  28 SE6       29.97F
$$



USA.gov is the U.S. government's official web portal to all federal, state and local government web resources and services.